Weather in Babino-2

Russia / Saint-Petersburg and Leningrad Oblast     59°12′05″N   31°26′46″E
temp.,
°C
wind,
m/s
gust,
m/s
humid.,
%
clouds,
%
prec.,
mm/h
press.,
hPa
HPBL,
m
7 may, fri
fri700:00+5sw51194100 1.4 997782
03:00+5sw51197100 1.6 9981059
06:00+4ssw51094100 0.1 9991027
09:00+4ssw41097100 0.3 1001860
12:00+6sw498896 0.1 1003965
15:00+7wsw498587 0.8 1004942
18:00+9sw377386 0.3 10051288
21:00+5s2293100 0.3 100518
8 may, sat
sat800:00+4sse2292100 0.0 100529
03:00+4ese1189100 0.0 100421
06:00+4ne1398100 3.1 1002103
09:00+4nnw3498100 7.9 1001545
12:00+4wnw3798100 2.2 1002737
15:00+5wnw4794100 2.4 1003819
18:00+3nw4109799 0.4 1006682
21:00+2wnw39945 0.4 1007257
9 may, sun
sun900:00+2wnw412935 0.0 1009445
03:00+2wnw5149127 0.0 1008689
06:00+1w310950 0.0 1013322
09:00+6w48671 0.0 1015823
12:00+11w594280 0.0 10162016
15:00+12wsw5835100 0.0 10172429
18:00+12sw4845100 0.0 10182019
21:00+7s386988 0.0 1019174
10 may, mon
mon1000:00+6ssw31174100 0.0 1020345
03:00+6s31175100 0.0 1020449
06:00+7ssw51390100 0.4 1020698
09:00+11ssw5107551 0.4 1021621
12:00+16sw586037 0.0 1021922
15:00+19sw6951100 0.0 10221610
18:00+18ssw5105897 0.0 10221221
21:00+15ssw51470100 0.0 1022666
11 may, tue
tue1100:00+12ssw41481100 0.0 1024453
03:00+10s4148445 0.0 1025432
06:00+10s51483100 0.0 1024468
09:00+14ssw5116299 0.0 1025637
12:00+18ssw6104846 0.0 10251072
15:00+20ssw694584 0.0 10241323
18:00+19ssw495293 0.0 10241185
21:00+13s310759 0.0 1024198